Location: Newark
(15.4608°S, 41.1635°W)
Time: 10:27:41
(UTC+00:00)

Vanguard 3 - Pass Details

Date: 30 July 2021
Orbit: 510 x 3260 km, 33.3° (Epoch: 22 September)

Event Time Altitude Azimuth Distance (km) Brightness Sun altitude
Rises 09:07:30 0° 268° (W) 3,946 10.0 -1.1°
Reaches altitude 10° 09:11:39 10° 250° (WSW) 2,525 9.0 -0.1°
Maximum altitude 09:15:24 18° 208° (SSW) 1,694 8.4 0.7°
Drops below altitude 10° 09:18:22 10° 163° (SSE) 1,929 9.1 1.4°
Sets 09:20:59 0° 141° (SE) 2,686 10.1 2.0°
